Погода в Кишиневе

Погода в Кишиневе : погода сейчас, прогноз погоды и архив. Всё, что Вы хотите узнать о погоде в Кишиневе!

Хотите узнать прогноз погоды в Кишинёве? Тогда Вам сюда: Погода в Кишинёве

Поиск расширенной информации на нашем сайте:

Другие новости

Новости СМИ2

Главная страница сайта

Новости сайта

03.07.2017

Напоминаем, что на нашем специализированном сайте Метеоцентр.Азия вы можете получить высокодетализированные автоматические прогнозы погоды по пунктам России, СНГ и мира в авиационном формате (включающие направление и скорость ветра, видимость, явления погоды, количество и форму облачности, нижнюю и верхнюю границу облачности).


Погода в Кишиневе - сегодня

Время (UTC), дата Ветер
(°,м/с) 
Видим.   Явления Облачность Т
(°С)
Тd
(°С)
f(%) Тe
(°С)
Pmin
(гПа)
dP
(гПа)
Po
(мм)
O2
(г/м3)
Тmin Tmax R s Состояние
почвы
18 19.08.17 160 (Ю) 20000 м    3/0 средняя, верхняя 
[Ac trans|Ci fib]
+27.2 +3.7 22 +27  1016.4  0.8  748  273    +34       
21 19.08.17 280 (З) 20000 м    3/0 верхняя 
[Ci fib]
+25 +5.2 28 +25  1016.9  0.4  748  275           
00 20.08.17 010 (С) 20000 м    ясно 
+21.7 +8.2 42 +22  1016.4  -0.7  748  278           
03 20.08.17 350 (С) 20000 м    ясно 
+20.3 +8.3 46 +20  1016.3  -0.2  747  279           
06 20.08.17 020 (С) 20000 м    ясно 
+23.6 +8.1 37 +24  1016.1  747  276  +17.9         
09 20.08.17 050 (СВ) 20000 м    3/0 верхняя 
[Ci fib]
+30.1 +9.6 28 +31  1015.1  -0.5  747  269           
12 20.08.17 130 (ЮВ) 20000 м    4/4 600 м 
[Cu hum]
+33.2 +3.1 15 +33  1013.4  -1.5  746  268           
15 20.08.17 140 (ЮВ) 20000 м    3/0 средняя 
[Ac trans]
+32.1 +3.1 16 +32  1012.5  -1  745  268           
18 20.08.17 тихо ()   20000 м    ясно 360 м 
+27.8 +2.8 20 +28  1012.7  -0.1  745  272    +33.5       
21 20.08.17 тихо ()   20000 м    3/0 верхняя 
[Ci fib]
+26.1 +3.4 23 +26  1012.4  -0.4  745  273           
00 21.08.17 020 (С) 20000 м    ясно 
+23.1 +5.5 32 +23  1011.9  -0.6  744  276           
03 21.08.17 360 (С) 20000 м    5/3 600 м средняя, верхняя 
[Cu hum|Ac trans|Ci fib]
+20.9 +7.2 41 +21  1011.2  -0.9  744  277  +18         
06 21.08.17 320 (СЗ) 20000 м    5/3 450 м верхняя 
[Cu hum|Ci fib]
+21.7 +9.9 47 +23  1011.1  744  276  +16.6         
09 21.08.17 330 (СЗ) 20000 м    10/0 верхняя 
[Ci sp]
+25 +14.5 52 +33  1010.1  -0.7  743  271           
12 21.08.17 310 (СЗ) 20000 м    10/0 средняя, верхняя 
[Ac trans|Ci sp]
+28 +12.4 38 +33  1008.6  -1.3  742  269           
15 21.08.17 310 (СЗ) 6{12}  20000 м    10/6 600 м средняя 
[Sc|Ac trans]
+24.6 +13.2 49 +31  1008  -0.8  742  272           
18 21.08.17 340 (С) 20000 м  гроза без осадков{ливн. осадки}  10/10 600 м кучево-дожд. 
[Cb calv]
+19.7 +13.4 67 +26  1009.9  1.5  743  276    +28.8  0.0     
21 21.08.17 330 (СЗ) 7{13}  20000 м  {гроза}  10/10 600 м кучево-дожд. 
[Cb calv]
+16.2 +11.6 74 +20  1010.2  0.1  743  280           
00 22.08.17 330 (СЗ) 6{16}  20000 м  {гроза}  9/4 600 м кучево-дожд., средняя 
[Cb calv|Ac trans]
+15.6 +11.2 75 +18  1010.7  0.4  743  281    +1.6       
03 22.08.17 330 (СЗ) 20000 м    8/5 600 м средняя 
[Sc|Ac trans]
+15.1 +11.1 77 +17  1010.5  -0.2  743  282  +15.1         
06 22.08.17 330 (СЗ) 20000 м    10/10 600 м 
[Cu Sc]
+15.3 +10.3 72 +17  1011.4  0.9  744  282  +14.9         
09 22.08.17 330 (СЗ) 7{12}  20000 м    10/5 600 м средняя 
[Cu Sc|Ac trans]
+16.8 +9.7 63 +17  1011.2  -0.1  743  280           
12 22.08.17 330 (СЗ) 20000 м    10/6 600 м средняя 
[Cu med, cong|Ac trans]
+18.2 +9.3 56 +18  1011.5  0.4  744  279           
15 22.08.17 350 (С) 20000 м    9/3 600 м средняя, верхняя 
[Cu med, cong|Ac trans|Ci fib]
+19 +7.8 48 +19  1011  -0.5  743  279           
18 22.08.17 330 (СЗ) 20000 м    3/0 средняя, верхняя 
[Ac trans|Ci fib]
+17.3 +7.9 54 +18  1011.6  0.5  744  280    +19.8       
Время (UTC), дата Ветер
(°,м/с) 
Видим.   Явления Облачность Т
(°С)
Тd
(°С)
f(%) Тe
(°С)
Pmin
(гПа)
dP
(гПа)
Po
(мм)
O2
(г/м3)
Тmin Tmax R s Состояние
почвы

Для получения пояснительной информации подведите курсор к названию столбца.

ПОГОДА в Кишиневе - архив

Всё, что Вы хотите узнать о погоде в Кишиневе - удобно и подробно!

Выберите нужную дату (начиная с 1 января 2015* года) и нажмите кнопку "Найти".
Будут отображены архивные сводки погоды по пункту Кишинев, начиная с указанной даты.


Отображать данные в формате CSV (для использования в таблицах Excel)


Внимание! Наш архив погоды предназначен исключительно для личного некоммерческого использования в познавательных целях. Если Вам необходимы официальные справки о состоянии погоды (для производственных, юридических, коммерческих и т.п. целей), обращайтесь в органы Росгидромета.

*Примечание: данная дата относится к архиву по метеостанциям СССР (Россия, СНГ, Балтия).
Архив по метеостанциям Зарубежной Европы и Азии (кроме Китая) хранится 10 дней, по другим регионам земного шара (Китай, Африка, Америка, Австралия, Океания) - 1 день.

Кишинев - район местоположения метеостанции


Название, широта, долгота, высота метеостанции:
Кишинев 47°ш. 29°д. 173 м над ур. моря [Молдавия]

Дополнительная информация

В oтличие oт бoльшинства пoгoдных сайтoв мы публикуем пoдрoбную метеoинфoрмацию в детальнoм прoфессиoнальнoм фoрмате.

Характеристики температуры и влажнoсти вoздуха измеряются на высoте 2 м в тени вдали oт зданий и деревьев.
Скoрoсть ветра измеряется на высoте 10 м (на урoвне рoста челoвека скoрoсть ветра ниже в 1.5-2 раза). Если метеoстанция нахoдится в гoрoде или в лесу, тo скoрoсть ветра занижена на 2-4 м/с пo сравнению с oткрытым местoм. Скoрoсть ветра над акватoриями крупных рек и oзёр, а также на вершинах хoлмoв на 2-5 м/с выше, чем в oбычных услoвиях.
Атмoсфернoе давление в разных тoчках местнoсти мoжет значительнo oтличаться oт давления на метеoстанции, в зависимoсти oт услoвий рельефа (при пoдъёме на 10 м давление пoнижается примернo на 1 мм рт.ст.).